[[{"header":{"parameterUnit":"m.s-1","parameterCategory":1,"la1":30.2991,"la2":30.254,"lo1":-89.0895,"lo2":-89.0444,"dy":0.0017,"dx":0.0017,"nx":28,"ny":28,"refTime":"2025-07-29T21:00:00:Z","depth":0,"parameterNumber":2,"parameterNumberName":"U-component_of_WINDS"},"data":[0,0,0,0,0,0,0,0,0,0,0,0,0,0,0,0,0,0,0,0,0,0,0,0,0,0,0,0,0,0,0,0,0,0,0,0,0,0,0,0,0,0,0,0,0,0,0,0,0,0,0,0,0,0,0,0,0,0,1.726,1.726,0,1.724,1.724,1.7239,1.7156,1.7154,1.7152,1.715,1.7132,1.7134,1.7135,0,0,0,0,0,0,0,0,0,0,0,0,0,1.7229,1.723,1.726,1.726,1.726,1.724,1.724,1.7239,1.7156,1.7154,1.7152,1.715,1.7132,1.7134,1.7135,0,0,0,0,0,0,0,0,0,0,0,0,0,1.7229,1.7231,1.726,1.7216,1.7212,1.724,1.7239,1.7239,1.7157,1.7154,1.7151,1.7148,1.7132,1.7133,1.7135,1.7206,0,0,1.7141,1.7142,0,0,0,0,0,0,0,0,1.723,1.7231,1.7223,1.7219,1.7214,1.7197,1.7222,1.7228,1.7158,1.7178,1.715,1.7147,1.7157,1.7156,1.7159,1.7205,1.7204,1.7142,1.7143,1.7144,1.7144,0,0,0,0,0,0,0,1.723,1.7231,1.7252,1.7223,1.7217,1.7198,1.7194,1.7223,1.7184,1.7176,1.717,1.7168,1.7154,1.7157,1.7158,1.7204,1.7142,1.7143,1.7145,1.7145,1.7307,1.731,0,0,0,0,0,0,1.7236,1.7232,1.7253,1.7251,1.7215,1.7201,1.7197,1.7206,1.7183,1.7177,1.7171,1.7165,1.7155,1.7156,1.7157,1.7239,1.7144,1.7145,1.7147,1.7304,1.7308,1.7311,0,0,0,0,0,0,1.7235,1.7238,1.7253,1.724,1.724,1.7204,1.7215,1.7207,1.721,1.7179,1.7172,1.7181,1.7153,1.7154,1.7194,1.7237,1.7146,1.7148,1.73,1.7305,1.731,1.7403,0,0,0,0,0,0,1.7235,1.7239,1.7264,1.7241,1.7241,1.7291,1.7217,1.7209,1.7214,1.7205,1.7187,1.7182,1.7151,1.7192,1.7196,1.7238,1.715,1.7296,1.7303,1.7308,1.7396,1.741,1.7423,0,0,0,0,0,1.7234,1.7292,1.7266,1.7269,1.7273,1.7293,1.7294,1.7256,1.7217,1.7244,1.7224,1.7182,1.7231,1.7196,1.7201,1.7244,1.7294,1.7301,1.7308,1.739,1.7407,1.7422,0,0,0,0,0,0,1.7322,1.7288,1.7259,1.7311,1.7306,1.7279,1.7311,1.7276,1.7282,1.7274,1.7227,1.7224,1.7271,1.7261,1.7223,1.7311,1.7256,1.7264,1.7317,1.7333,1.7346,1.7349,1.7151,0,0,0,0,0,1.7348,1.7366,1.7336,1.7384,1.7383,1.7348,1.7355,1.7327,1.732,1.7317,1.73,1.7296,1.731,1.732,1.7332,1.7393,1.7389,1.7425,1.7438,1.745,1.7458,1.7491,1.7507,1.7334,1.7334,1.7334,0,0,1.7401,1.7384,1.7399,1.7402,1.7394,1.7416,1.7346,1.7372,1.7388,1.7321,1.7358,1.7346,1.7337,1.7389,1.7411,1.7382,1.7505,1.7458,1.7468,1.747,1.75,1.7517,1.7531,1.7339,1.7338,1.7337,0,0,1.7509,1.7497,1.7538,1.7531,1.752,1.7496,1.7506,1.7485,1.7474,1.751,1.746,1.7479,1.7504,1.7501,1.7502,1.7609,1.7572,1.7613,1.7684,1.7717,1.7731,1.7743,1.7782,1.7797,1.7621,1.7622,1.7622,0,1.7577,1.7606,1.7563,1.7592,1.7595,1.7534,1.7575,1.7571,1.7565,1.757,1.7537,1.7568,1.7558,1.7608,1.7634,1.7637,1.7648,1.7616,1.7732,1.7743,1.7754,1.7792,1.7806,1.7627,1.7626,1.7626,1.7625,0,1.7691,1.7712,1.7746,1.7741,1.7748,1.7783,1.7746,1.7758,1.7728,1.7708,1.7746,1.7732,1.774,1.7749,1.7721,1.7796,1.7779,1.774,1.7683,1.7777,1.7811,1.7825,1.7635,1.7633,1.7631,1.763,0,0,1.7857,1.7826,1.784,1.7837,1.782,1.7836,1.7868,1.7875,1.7888,1.7885,1.7912,1.7934,1.7898,1.79,1.7871,1.7899,1.7987,1.7857,1.7856,1.7883,1.8071,1.8102,1.812,1.7961,1.7963,1.7965,1.8072,0,1.7961,1.8014,1.7976,1.8036,1.8056,1.7998,1.8027,1.802,1.8002,1.8017,1.7996,1.8014,1.7964,1.7965,1.799,1.7971,1.8024,1.7962,1.7988,1.7989,1.7994,1.8137,1.8171,1.8272,1.8085,1.8088,1.8089,0,1.8091,1.8094,1.8156,1.8136,1.8142,1.8169,1.8172,1.8186,1.8178,1.8163,1.8165,1.8128,1.8159,1.8102,1.8145,1.8104,1.8111,1.8104,1.8107,1.811,1.8047,1.8147,1.8304,1.832,1.811,1.8108,1.8107,0,1.8209,1.8227,1.8267,1.8266,1.8243,1.8263,1.8254,1.8242,1.8249,1.8252,1.8256,1.8263,1.8268,1.8275,1.8241,1.8202,1.829,1.8229,1.828,1.8281,1.8303,1.8302,1.8466,1.8304,1.8304,1.8303,1.8303,0,1.8331,1.8372,1.832,1.8345,1.8389,1.8344,1.839,1.8375,1.8365,1.8387,1.8336,1.8358,1.8311,1.8328,1.8302,1.8343,1.8345,1.8335,1.8328,1.8341,1.8342,1.8347,1.834,1.8307,1.8307,1.8306,1.8305,0,1.8471,1.8437,1.8477,1.8451,1.8445,1.848,1.8458,1.848,1.8457,1.8486,1.849,1.8456,1.8473,1.8439,1.8453,1.8435,1.8493,1.8474,1.8497,1.8492,1.8545,1.8542,1.872,1.8741,1.8564,1.8565,1.8567,0,1.8553,1.8583,1.856,1.857,1.8564,1.8582,1.8588,1.8545,1.8554,1.8546,1.857,1.8583,1.8592,1.8622,1.8599,1.861,1.8592,1.8653,1.8593,1.8606,1.8595,1.8595,1.8599,1.8667,1.8669,1.8671,1.8672,0,1.8703,1.8684,1.8695,1.87,1.8709,1.8711,1.871,1.8722,1.8676,1.8689,1.8705,1.8712,1.8725,1.8739,1.8744,1.8735,1.8698,1.869,1.8703,1.8718,1.8731,1.8727,1.8533,1.8687,1.8686,1.8685,1.8684,1.8683,1.8818,1.8842,1.883,1.8844,1.8838,1.8837,1.8858,1.8837,1.885,1.8857,1.883,1.8854,1.8845,1.8846,1.8842,1.8861,1.8833,1.8851,1.8856,1.8862,1.8872,1.8726,1.8861,1.886,1.886,1.886,1.8859,0,1.8967,1.8956,1.8969,1.8968,1.8979,1.8939,1.8936,1.8948,1.8969,1.8963,1.8972,1.8992,1.9006,1.8983,1.8993,1.9012,1.8995,1.9017,1.9016,1.9015,1.8894,1.8883,1.903,1.903,1.903,1.903,1.903,1.903,1.9046,1.9086,1.9066,1.9103,1.9091,1.9113,1.9114,1.9114,1.9109,1.9134,1.9144,1.9129,1.9116,1.9125,1.9136,1.9129,1.9136,1.9165,1.9152,1.904,1.9024,1.9008,1.8997,1.9166,1.9166,1.9272,1.9273,1.9273]},{"header":{"parameterUnit":"m.s-1","parameterCategory":1,"la1":30.2991,"la2":30.254,"lo1":-89.0895,"lo2":-89.0444,"dy":0.0017,"dx":0.0017,"nx":28,"ny":28,"refTime":"2025-07-29T21:00:00:Z","depth":0,"parameterNumber":3,"parameterNumberName":"V-component_of_WINDS"},"data":[0,0,0,0,0,0,0,0,0,0,0,0,0,0,0,0,0,0,0,0,0,0,0,0,0,0,0,0,0,0,0,0,0,0,0,0,0,0,0,0,0,0,0,0,0,0,0,0,0,0,0,0,0,0,0,0,0,0,-0.5035,-0.5036,0,-0.5073,-0.5074,-0.5074,-0.5098,-0.5098,-0.5098,-0.5098,-0.5135,-0.5136,-0.5137,0,0,0,0,0,0,0,0,0,0,0,0,0,-0.4981,-0.4982,-0.5035,-0.5036,-0.5036,-0.5073,-0.5074,-0.5074,-0.5098,-0.5098,-0.5098,-0.5098,-0.5135,-0.5136,-0.5137,0,0,0,0,0,0,0,0,0,0,0,0,0,-0.501,-0.4982,-0.5035,-0.5052,-0.5054,-0.5073,-0.5074,-0.5074,-0.5098,-0.5098,-0.5098,-0.5098,-0.5135,-0.5136,-0.5137,-0.5141,0,0,-0.5141,-0.5142,0,0,0,0,0,0,0,0,-0.5009,-0.5012,-0.5049,-0.5051,-0.5053,-0.5081,-0.5068,-0.5097,-0.5098,-0.5081,-0.5098,-0.5099,-0.5117,-0.512,-0.5127,-0.5143,-0.5145,-0.5141,-0.5142,-0.5143,-0.5143,0,0,0,0,0,0,0,-0.5007,-0.5011,-0.505,-0.505,-0.5052,-0.5058,-0.5062,-0.5074,-0.5097,-0.5083,-0.5085,-0.5089,-0.5118,-0.5125,-0.5128,-0.5145,-0.5141,-0.5143,-0.5143,-0.5144,-0.5167,-0.5167,0,0,0,0,0,0,-0.5002,-0.5009,-0.5049,-0.5051,-0.5031,-0.5059,-0.5063,-0.5072,-0.5097,-0.5102,-0.5089,-0.509,-0.5123,-0.5126,-0.5129,-0.5136,-0.5143,-0.5144,-0.5145,-0.5168,-0.5167,-0.5167,0,0,0,0,0,0,-0.5001,-0.5005,-0.5047,-0.5031,-0.5036,-0.5059,-0.5069,-0.5073,-0.508,-0.5102,-0.5106,-0.5092,-0.5123,-0.5127,-0.5138,-0.5137,-0.5145,-0.5146,-0.5168,-0.5168,-0.5167,-0.5149,0,0,0,0,0,0,-0.4999,-0.5005,-0.5007,-0.5031,-0.5037,-0.5057,-0.5069,-0.5073,-0.5082,-0.5084,-0.5106,-0.511,-0.5124,-0.5136,-0.514,-0.5139,-0.5147,-0.5168,-0.5168,-0.5167,-0.5149,-0.5148,-0.5146,0,0,0,0,0,-0.4997,-0.4999,-0.5007,-0.5011,-0.504,-0.5056,-0.506,-0.5077,-0.5082,-0.5084,-0.5098,-0.5109,-0.5137,-0.5137,-0.5141,-0.5141,-0.5168,-0.5168,-0.5167,-0.515,-0.5148,-0.5146,0,0,0,0,0,0,-0.4974,-0.5003,-0.5011,-0.5022,-0.5037,-0.506,-0.5064,-0.5074,-0.5087,-0.5089,-0.5108,-0.5113,-0.5122,-0.5133,-0.5133,-0.5146,-0.5154,-0.5154,-0.5139,-0.5138,-0.5136,-0.5133,-0.5148,0,0,0,0,0,-0.497,-0.4982,-0.5006,-0.5013,-0.502,-0.504,-0.5048,-0.506,-0.5076,-0.5082,-0.5097,-0.5111,-0.5124,-0.5131,-0.5144,-0.5151,-0.5156,-0.5153,-0.5152,-0.515,-0.515,-0.5155,-0.5154,-0.5166,-0.5166,-0.5166,0,0,-0.4963,-0.498,-0.4985,-0.5009,-0.5021,-0.5032,-0.5045,-0.5056,-0.5064,-0.5083,-0.5095,-0.5107,-0.5124,-0.5134,-0.5139,-0.5143,-0.5148,-0.515,-0.5149,-0.5149,-0.5155,-0.5154,-0.5153,-0.5166,-0.5166,-0.5166,0,0,-0.4954,-0.4968,-0.4975,-0.4988,-0.5008,-0.5022,-0.5024,-0.5046,-0.5055,-0.5067,-0.5082,-0.5091,-0.5112,-0.5124,-0.5133,-0.5129,-0.5139,-0.5133,-0.5124,-0.5129,-0.5128,-0.5128,-0.5127,-0.5126,-0.5133,-0.5133,-0.5133,0,-0.4941,-0.4959,-0.4978,-0.4988,-0.4998,-0.5016,-0.5024,-0.5035,-0.5057,-0.5063,-0.5068,-0.5094,-0.5107,-0.512,-0.512,-0.5126,-0.5128,-0.513,-0.5127,-0.5127,-0.5126,-0.5125,-0.5125,-0.5132,-0.5132,-0.5132,-0.5132,0,-0.4943,-0.4955,-0.4958,-0.498,-0.499,-0.4999,-0.5019,-0.5027,-0.5037,-0.5051,-0.5063,-0.5079,-0.5096,-0.51,-0.511,-0.5114,-0.5116,-0.5123,-0.5131,-0.5124,-0.5123,-0.5123,-0.513,-0.5131,-0.5131,-0.5131,0,0,-0.492,-0.4953,-0.4954,-0.4965,-0.4988,-0.4997,-0.5007,-0.5024,-0.503,-0.5045,-0.5053,-0.507,-0.5078,-0.5088,-0.51,-0.5104,-0.51,-0.5111,-0.5112,-0.5109,-0.5106,-0.51,-0.51,-0.5107,-0.5107,-0.5107,-0.5105,0,-0.4915,-0.4934,-0.4951,-0.4963,-0.4975,-0.4993,-0.5001,-0.5016,-0.5029,-0.504,-0.5053,-0.5065,-0.5074,-0.508,-0.5085,-0.51,-0.51,-0.51,-0.5115,-0.5115,-0.511,-0.5099,-0.5093,-0.509,-0.5105,-0.5104,-0.5104,0,-0.4911,-0.4927,-0.494,-0.4963,-0.4968,-0.4976,-0.4993,-0.5003,-0.502,-0.5029,-0.5041,-0.5054,-0.5064,-0.5071,-0.5085,-0.5085,-0.5092,-0.51,-0.5101,-0.5102,-0.5109,-0.5101,-0.5089,-0.5088,-0.5104,-0.5104,-0.5104,0,-0.4894,-0.4918,-0.4929,-0.4937,-0.4964,-0.4969,-0.498,-0.4998,-0.5007,-0.5022,-0.5028,-0.5043,-0.5051,-0.5063,-0.5079,-0.5082,-0.5092,-0.51,-0.51,-0.5099,-0.5101,-0.51,-0.509,-0.5105,-0.5105,-0.5105,-0.5105,0,-0.4886,-0.4894,-0.4922,-0.4928,-0.4938,-0.4957,-0.4966,-0.4978,-0.4994,-0.5004,-0.502,-0.5028,-0.505,-0.506,-0.5073,-0.5084,-0.5087,-0.5095,-0.5098,-0.5093,-0.5092,-0.5098,-0.5099,-0.5105,-0.5105,-0.5105,-0.5105,0,-0.4868,-0.4887,-0.4901,-0.4925,-0.4932,-0.4937,-0.4958,-0.4965,-0.4979,-0.4991,-0.4995,-0.5016,-0.503,-0.5048,-0.5067,-0.5076,-0.5084,-0.509,-0.5079,-0.5081,-0.5079,-0.5079,-0.5072,-0.5072,-0.5087,-0.5087,-0.5087,0,-0.4862,-0.4869,-0.4894,-0.4902,-0.4913,-0.4926,-0.4935,-0.4955,-0.4964,-0.4985,-0.499,-0.5005,-0.5018,-0.5039,-0.5056,-0.5071,-0.5076,-0.5073,-0.5079,-0.5074,-0.5076,-0.5076,-0.5077,-0.5071,-0.5071,-0.5071,-0.5071,0,-0.4849,-0.4859,-0.4872,-0.4889,-0.49,-0.4915,-0.4929,-0.4935,-0.4957,-0.4967,-0.4982,-0.4992,-0.5012,-0.5027,-0.5044,-0.5055,-0.5066,-0.5069,-0.5069,-0.5065,-0.5058,-0.5062,-0.5075,-0.5069,-0.5069,-0.5069,-0.5069,-0.5069,-0.4837,-0.4844,-0.4863,-0.4878,-0.4892,-0.4905,-0.4913,-0.4929,-0.4941,-0.496,-0.497,-0.4985,-0.5002,-0.5027,-0.5037,-0.5049,-0.5053,-0.5054,-0.5054,-0.5054,-0.5053,-0.5056,-0.5052,-0.5052,-0.5052,-0.5052,-0.5052,0,-0.4826,-0.4839,-0.4852,-0.4873,-0.4885,-0.4895,-0.4912,-0.4921,-0.4934,-0.495,-0.4963,-0.4979,-0.4994,-0.5012,-0.5028,-0.5034,-0.5039,-0.5037,-0.5037,-0.5039,-0.5048,-0.5046,-0.5032,-0.5032,-0.5032,-0.5032,-0.5032,-0.5032,-0.4821,-0.4833,-0.4844,-0.4863,-0.4877,-0.4892,-0.49,-0.4913,-0.4926,-0.4944,-0.4957,-0.4969,-0.4986,-0.5003,-0.5017,-0.5022,-0.5027,-0.5023,-0.503,-0.5037,-0.5039,-0.504,-0.5039,-0.5024,-0.5024,-0.5021,-0.502,-0.502]}]]